(155190) = 2005 UV355

Discovered at Mount Lemmon on 2005-10-29 by Mt. Lemmon Survey.

Orbit

Orbit type: Main Belt

Note: WebGL enabled browser required.

epoch2023-02-25.0
epoch JD2460000.5
perihelion date2019-04-19.07973
perihelion JD2458592.57973
argument of perihelion (°)141.50063
ascending node (°)159.11881
inclination (°)2.33122
eccentricity0.0770065
perihelion distance (AU)2.7007493
Tisserand w.r.t. Jupiter3.3
ΔV w.r.t. Earth (km/sec)10.3
semimajor axis (AU)2.9260762
mean anomaly (°)277.23844
mean daily motion (°/day)0.19691350
aphelion distance (AU)3.151
period (years)5.01
P-vector [x]0.50951712
P-vector [y]-0.79918740
P-vector [z]-0.31889151
Q-vector [x]0.86033837
Q-vector [y]0.47941190
Q-vector [z]0.17315348
absolute magnitude16.06
phase slope0.15
uncertainty0
referenceMPO 745323
observations used591
oppositions17
arc length (days)7353
first opposition used2003
last opposition used2023
residual rms (arc-secs)0.72
perturbers coarse indicatorM-v
perturbers precise indicator003Ek
first observation date used2003-05-01.0
last observation date used2023-06-18.0
computer nameMPCLINUX
JD of orbit computation2456966.748167
perihelion JD uncertainty (days)1.2242E-04
argument of perihelion uncertainty (°)8.1128E-05
ascending node uncertainty (°)7.6912E-05
inclination uncertainty (°)4.6201E-06
eccentricity uncertainty 3.7980E-08
perihelion distance uncertainty (AU)1.0907E-07
Minimum Orbit Intersection Distances (in AU)
for orbit epoch: 2460000.5, reference: E2023-M50
Mercury2.25701
Venus1.97482
Earth1.6847
Mars1.27293
Jupiter1.99625
Saturn5.93614
Uranus15.3482
Neptune26.8978

Observations

611 total observations over interval: 2002 02 07.31146 – 2023 06 18.333429
These data are available for download (format description).

Date (UT) J2000 RA J2000 Dec Magn Location Ref
2002 02 07.31146 09 33 45.17 +13 19 35.3 20.8 V 291 – LPL/Spacewatch II MPS 168847
2002 02 07.33197 09 33 44.09 +13 19 40.8 20.5 V 291 – LPL/Spacewatch II MPS 168847
2002 02 07.35359 09 33 42.99 +13 19 46.9 20.8 V 291 – LPL/Spacewatch II MPS 168847
2003 05 01.30426 14 48 44.89 -12 53 16.6 20.3 V 691 – Steward Observatory, Kitt Peak-Spacewatch MPS 168847
2003 05 01.33253 14 48 43.49 -12 53 09.5 20.3 V 691 – Steward Observatory, Kitt Peak-Spacewatch MPS 168847
2003 05 01.35948 14 48 42.13 -12 53 02.7 20.2 V 691 – Steward Observatory, Kitt Peak-Spacewatch MPS 168847
2003 05 05.27078 14 45 30.96 -12 36 52.2 19.5   704 – Lincoln Laboratory ETS, New Mexico MPS 168847
2003 05 05.28308 14 45 30.30 -12 36 48.0 19.5   704 – Lincoln Laboratory ETS, New Mexico MPS 168847
2003 05 05.29544 14 45 29.70 -12 36 43.8 19.4   704 – Lincoln Laboratory ETS, New Mexico MPS 168847
2003 05 05.30774 14 45 29.02 -12 36 42.2 19.7   704 – Lincoln Laboratory ETS, New Mexico MPS 168847
2003 06 01.02068 14 26 27.24 -11 07 05.2 19.3 R 807 – Cerro Tololo Observatory, La Serena MPS 168847
2003 06 01.10961 14 26 24.34 -11 06 53.8   807 – Cerro Tololo Observatory, La Serena MPS 168847
2004 08 12.30301 22 13 17.29 -10 11 30.5 20.4   704 – Lincoln Laboratory ETS, New Mexico MPS 168847
2004 08 12.31369 22 13 16.86 -10 11 33.2 20.1   704 – Lincoln Laboratory ETS, New Mexico MPS 168847
2004 08 12.33391 22 13 16.02 -10 11 39.2 20.3   704 – Lincoln Laboratory ETS, New Mexico MPS 168847
2005 10 29.41609 04 36 27.10 +18 47 16.8 20.3 V G96 – Mt. Lemmon Survey MPS 151046
2005 10 29.42297 04 36 26.89 +18 47 15.9 20.4 V G96 – Mt. Lemmon Survey MPS 151046
2005 10 29.42997 04 36 26.64 +18 47 15.0 20.2 V G96 – Mt. Lemmon Survey MPS 151046
2005 10 29.43685 04 36 26.38 +18 47 14.1 20.4 V G96 – Mt. Lemmon Survey MPS 151046
2005 11 05.30348 04 32 07.87 +18 33 12.7 19.9 V G96 – Mt. Lemmon Survey MPS 151046
2005 11 05.31420 04 32 07.40 +18 33 11.4 19.6 V G96 – Mt. Lemmon Survey MPS 151046
2005 11 05.32495 04 32 06.93 +18 33 10.0 19.9 V G96 – Mt. Lemmon Survey MPS 151046
2005 11 30.29012 04 11 10.03 +17 35 26.4 19.9 V G96 – Mt. Lemmon Survey MPS 159033
2005 11 30.29683 04 11 09.60 +17 35 25.3 19.7 V G96 – Mt. Lemmon Survey MPS 159033
2005 11 30.30354 04 11 09.24 +17 35 24.6 19.8 V G96 – Mt. Lemmon Survey MPS 159033
2005 11 30.31030 04 11 08.88 +17 35 23.8 19.9 V G96 – Mt. Lemmon Survey MPS 159033
2005 12 06.27618 04 05 56.40 +17 22 25.2 19.8 V G96 – Mt. Lemmon Survey MPS 159033
2005 12 06.27918 04 05 56.22 +17 22 24.6 19.7 V G96 – Mt. Lemmon Survey MPS 159033
2005 12 06.28214 04 05 56.07 +17 22 24.5 19.9 V G96 – Mt. Lemmon Survey MPS 159033
2005 12 06.28508 04 05 55.93 +17 22 24.0 19.8 V G96 – Mt. Lemmon Survey MPS 159033
2005 12 06.31523 04 05 54.34 +17 22 20.3 19.9 V G96 – Mt. Lemmon Survey MPS 159033
2005 12 06.31833 04 05 54.16 +17 22 19.8 19.7 V G96 – Mt. Lemmon Survey MPS 159033
2005 12 06.32129 04 05 54.02 +17 22 19.5 19.7 V G96 – Mt. Lemmon Survey MPS 159033
2005 12 06.32424 04 05 53.84 +17 22 19.7 19.7 V G96 – Mt. Lemmon Survey MPS 159033
2006 11 21.48425 09 48 23.29 +11 50 15.9 21.9 V G96 – Mt. Lemmon Survey MPS 188727
2006 11 21.49453 09 48 23.54 +11 50 14.8 22.2 V G96 – Mt. Lemmon Survey MPS 188727
2006 11 21.50488 09 48 23.94 +11 50 12.8 22.4 V G96 – Mt. Lemmon Survey MPS 188727
2006 11 21.51513 09 48 24.26 +11 50 10.4 21.1 V G96 – Mt. Lemmon Survey MPS 188727
2007 01 27.27516 09 41 42.07 +12 33 32.6 20.6 V G96 – Mt. Lemmon Survey MPS 198169
2007 01 27.28310 09 41 41.71 +12 33 34.8 20.9 V G96 – Mt. Lemmon Survey MPS 198169
2007 01 27.29097 09 41 41.35 +12 33 37.0 21.2 V G96 – Mt. Lemmon Survey MPS 198169
2007 01 27.29891 09 41 41.02 +12 33 38.9 21.1 V G96 – Mt. Lemmon Survey MPS 198169
2007 02 06.33693 09 33 46.83 +13 18 08.2 20.0 V G96 – Mt. Lemmon Survey MPS 198729
2007 02 06.34421 09 33 46.44 +13 18 10.5 20.3 V G96 – Mt. Lemmon Survey MPS 198729
2007 02 06.35151 09 33 46.11 +13 18 12.4 20.5 V G96 – Mt. Lemmon Survey MPS 198729
2007 02 06.35880 09 33 45.75 +13 18 13.6 20.2 V G96 – Mt. Lemmon Survey MPS 198729
2007 03 09.27373 09 10 45.98 +15 27 06.7 20.9 V G96 – Mt. Lemmon Survey MPS 202365
2007 03 09.27974 09 10 45.76 +15 27 07.8 21.0 V G96 – Mt. Lemmon Survey MPS 202365
2007 03 09.28576 09 10 45.58 +15 27 09.3 20.5 V G96 – Mt. Lemmon Survey MPS 202365
2007 03 09.29181 09 10 45.37 +15 27 10.4 20.4 V G96 – Mt. Lemmon Survey MPS 202365
2007 03 14.22625 09 08 18.34 +15 41 42.8 20.2 V G96 – Mt. Lemmon Survey MPS 203111
2007 03 14.23072 09 08 18.20 +15 41 43.2 20.4 V G96 – Mt. Lemmon Survey MPS 203111
2007 03 14.23521 09 08 18.09 +15 41 44.1 20.2 V G96 – Mt. Lemmon Survey MPS 203111
2007 03 14.23968 09 08 17.95 +15 41 45.0 20.1 V G96 – Mt. Lemmon Survey MPS 203111
2008 02 10.47837 14 55 57.82 -14 48 34.4 20.8 V G96 – Mt. Lemmon Survey MPS 239058
2008 02 10.48940 14 55 58.29 -14 48 35.7 21.9 V G96 – Mt. Lemmon Survey MPS 239058
2008 02 10.50075 14 55 58.80 -14 48 37.6 21.4 V G96 – Mt. Lemmon Survey MPS 239058
2008 02 10.51021 14 55 59.19 -14 48 38.3 21.6 V G96 – Mt. Lemmon Survey MPS 239058
2008 03 28.41107 15 07 28.07 -14 44 06.4 20.5 V 691 – Steward Observatory, Kitt Peak-Spacewatch MPS 244510
2008 03 28.42870 15 07 27.81 -14 44 04.5 20.5 V 691 – Steward Observatory, Kitt Peak-Spacewatch MPS 244510
2008 03 28.44636 15 07 27.40 -14 44 01.9 20.9 V 691 – Steward Observatory, Kitt Peak-Spacewatch MPS 244510
2008 04 01.36041 15 06 07.49 -14 34 02.9 20.3 V 691 – Steward Observatory, Kitt Peak-Spacewatch MPS 245579
2008 04 01.37803 15 06 07.04 -14 34 00.4 20.5 V 691 – Steward Observatory, Kitt Peak-Spacewatch MPS 245579
2008 04 01.39564 15 06 06.62 -14 33 57.0 20.3 V 691 – Steward Observatory, Kitt Peak-Spacewatch MPS 245579
2008 04 30.29484 14 47 28.96 -12 47 59.2 18.8 V G96 – Mt. Lemmon Survey MPS 248846
2008 04 30.30299 14 47 28.57 -12 47 57.4 19.6 V G96 – Mt. Lemmon Survey MPS 248846
2008 04 30.31113 14 47 28.14 -12 47 55.2 19.5 V G96 – Mt. Lemmon Survey MPS 248846
2008 04 30.31932 14 47 27.70 -12 47 53.1 19.3 V G96 – Mt. Lemmon Survey MPS 248846
2008 04 30.40276 14 47 23.53 -12 47 32.2 19.9 V G96 – Mt. Lemmon Survey MPS 248846
2008 04 30.40501 14 47 23.38 -12 47 31.4 20.0 V G96 – Mt. Lemmon Survey MPS 248846
2008 04 30.40724 14 47 23.28 -12 47 30.8 19.6 V G96 – Mt. Lemmon Survey MPS 248846
2008 04 30.40950 14 47 23.17 -12 47 30.5 19.7 V G96 – Mt. Lemmon Survey MPS 248846
2008 05 31.20241 14 25 06.45 -11 00 51.8 20.3 V G96 – Mt. Lemmon Survey MPS 251330
2008 05 31.20742 14 25 06.31 -11 00 50.9 20.4 V G96 – Mt. Lemmon Survey MPS 251330
2008 05 31.21237 14 25 06.13 -11 00 50.1 20.2 V G96 – Mt. Lemmon Survey MPS 251330
2008 05 31.21736 14 25 05.95 -11 00 49.7 20.3 V G96 – Mt. Lemmon Survey MPS 251330
2009 06 24.40432 22 27 15.87 -08 23 51.3 21.1 V G96 – Mt. Lemmon Survey MPS 289235
2009 06 24.41388 22 27 16.02 -08 23 50.8 20.8 V G96 – Mt. Lemmon Survey MPS 289235
2009 06 24.42359 22 27 16.16 -08 23 50.4 20.9 V G96 – Mt. Lemmon Survey MPS 289235
2009 06 24.43324 22 27 16.34 -08 23 49.4 20.4 V G96 – Mt. Lemmon Survey MPS 289235
2009 07 28.38505 22 22 50.99 -09 05 32.5 20.3 V 691 – Steward Observatory, Kitt Peak-Spacewatch MPS 291334
2009 07 28.40267 22 22 50.42 -09 05 36.3 20.1 V 691 – Steward Observatory, Kitt Peak-Spacewatch MPS 291334
2009 07 28.42028 22 22 49.77 -09 05 41.6 19.7 V 691 – Steward Observatory, Kitt Peak-Spacewatch MPS 291334
2009 08 01.39136 22 20 39.99 -09 20 54.3 20.0 V 691 – Steward Observatory, Kitt Peak-Spacewatch MPS 291334
2009 08 01.40900 22 20 39.37 -09 20 58.6 20.2 V 691 – Steward Observatory, Kitt Peak-Spacewatch MPS 291334
2009 08 01.42663 22 20 38.72 -09 21 02.8 20.1 V 691 – Steward Observatory, Kitt Peak-Spacewatch MPS 291334
2009 08 18.01028 22 09 10.20 -10 39 28.9 19.2 V J75 – OAM Observatory, La Sagra MPS 292473
2009 08 18.02274 22 09 09.60 -10 39 32.6 19.7 V J75 – OAM Observatory, La Sagra MPS 292473
2009 08 18.03520 22 09 09.03 -10 39 36.6 19.2 V J75 – OAM Observatory, La Sagra MPS 292473
2009 08 19.00705 22 08 24.14 -10 44 39.4 19.2 V J75 – OAM Observatory, La Sagra MPS 292473
2009 08 19.01939 22 08 23.55 -10 44 43.4 19.1 V J75 – OAM Observatory, La Sagra MPS 292473
2009 08 19.03169 22 08 23.02 -10 44 46.0 19.1 V J75 – OAM Observatory, La Sagra MPS 292473
